Tracking 33068 objects as of 24-Jan-2026
HD Live streaming from Space Station
objects crossing your sky now

OKEAN O

Track OKEAN O now!
10-day predictions
OKEAN O is classified as:


NORAD ID: 25860
Int'l Code: 1999-039A
Perigee: 634.4 km
Apogee: 637.0 km
Inclination: 98.0 °
Period: 97.3 minutes
Semi major axis: 7006 km
RCS: 19.8052 m2 (large)
Launch date: July 17, 1999
Source: Commonwealth of Independent States (former USSR) (CIS)
Launch site: TYURATAM MISSILE AND SPACE COMPLEX (TTMTR)
Your satellite tracking list
Your tracking list is empty




NASA's NSSDC Master Catalog

Two Line Element Set (TLE):
1 25860U 99039A   26024.17438030  .00001726  00000-0  23363-3 0  9997
2 25860  97.9535  84.4970 0001864  99.8120 260.3303 14.80254381427805
Source of the keplerian elements: AFSPC